Aviation Digital Data Service (ADDS)

Output produced by METARs form (0242 UTC 24 July 2017)
found at http://www.aviationweather.gov/adds/metars/
 
WAAA 240230Z VRB02KT 9999 FEW019 29/19 Q1012 NOSIG
TAF WAAA 232300Z 2400/2506 14004KT 9000 FEW020 
     BECMG 2401/2403 31008KT 
     BECMG 2411/2413 12004KT 8000 
     BECMG 2501/2503 31008KT 9000
       
WABB 240200Z 14004KT 9999 SCT018 29/24 Q1010 NOSIG
TAF AMD WABB 232325Z 2400/2506 33004KT 9999 FEW018 FEW019 
     TEMPO 2400/2406 7000 RA 
     BECMG 2402/2404 10003KT SCT018
       
WADD 240230Z 10013KT 060V120 9999 SCT016 27/21 Q1014 NOSIG
TAF WADD 232300Z 2400/2500 09010KT 9999 SCT016
       
WADL 240230Z 15012KT 9000 SCT016 27/20 Q1014 NOSIG
TAF WADL 232300Z 2400/2424 15015KT 9000 SCT016
       
WAHQ 240200Z 21006KT 7000 NIL NSC 26/17 Q1014 NOSIG
WAHS 240230Z 11007KT 5000 HZ FEW014 29/19 Q1012 NOSIG
WAJJ 240200Z 32003KT 9999 FEW011 31/22 Q1008 NOSIG
WALL 240230Z 23005KT 180V260 9999 FEW020 29/25 Q1010
TAF WALL 232300Z 2400/2506 25010KT 9999 SCT018 
     TEMPO 2400/2403 FEW018CB SCT018
       
WAMM 240230Z 06004KT 9999 FEW022 31/24 Q1009 NOSIG
TAF WAMM 232300Z 2400/2506 18008KT 9999 SCT022 
     PROB40 
     TEMPO 2405/2409 8000 -RA SCT018 
     BECMG 2409/2411 06002KT FEW022
       
WAOO 240130Z 19003KT 9999 FEW020 26/22 Q1011
TAF WAOO 232300Z 2400/2424 15006KT 9999 FEW018 
     TEMPO 2420/2424 5000 BR
       
TAF WAPI 232300Z 2400/2412 12006KT 9000 FEW020 SCT100
       
WAPP 240230Z 18004KT 120V240 9000 -RA BKN015 27/25 Q1011 NOSIG
TAF WAPP 232300Z 2400/2424 34007KT 6000 -RA BKN015 
     TEMPO 2409/2413 9999 NSW
       
WAQQ 240200Z 20005KT 9000 SCT015 31/23 Q1009
TAF WAQQ 232300Z 2400/2412 23004KT 8000 FEW015CB BKN015 
     BECMG 2400/2402 9999 SCT015
       
WARR 240230Z 14008KT 120V180 8000 FEW020 28/20 Q1013 NOSIG
TAF WARR 232300Z 2400/2500 10010KT 9999 FEW020 
     TEMPO 2421/2500 5000 HZ
       
WATT 240230Z 10014KT 9999 SCT019 BKN059 30/19 Q1014 NOSIG
TAF WATT 232300Z 2400/2424 09008KT 9999 FEW020 
     TEMPO 2403/2408 09010G20KT
       
WIBB 240230Z 16012KT 9999 SCT017 30/25 Q1009
TAF WIBB 232300Z 2400/2424 17006KT 9999 SCT015
       
WIDD 240230Z 18009KT 9999 FEW014 31/24 Q1012 NOSIG
TAF WIDD 232300Z 2400/2424 14012KT 9999 SCT014 
     BECMG 2412/2414 14005KT FEW014
       
WIEE 240230Z VRB02KT 9999 FEW020 30/24 Q1011 NOSIG
TAF WIEE 232300Z 2400/2424 24005KT 9999 FEW020 
     BECMG 2410/2412 02003KT 8000
       
WIHH 240200Z 20003KT 5000 HZ FEW020 28/24 Q1012 NOSIG
TAF WIHH 232300Z 2400/2500 06008KT 6000 FEW022 
     BECMG 2401/2403 21006KT 7000 FEW024 
     TEMPO 2409/2412 34010KT 4000 -RA FEW017CB SCT018 
     BECMG 2415/2417 00000KT 6000 FEW020
       
WIII 240230Z VRB02KT 6000 SCT020 29/24 Q1012 NOSIG
TAF WIII 232300Z 2400/2506 VRB04KT 5000 HZ SCT020 
     BECMG 2402/2404 05010KT 9000 NSW
       
WIMM 240230Z 00000KT 2000 HZ SCT018 27/25 Q1010
TAF WIMM 232300Z 2400/2500 VRB05KT 0900 FG FEW018 
     BECMG 2403/2405 07010KT 8000 NSW SCT018 
     BECMG 2411/2413 VRB05KT 3000 BR
       
WIOO 240230Z 13007KT 9999 SCT013 30/25 Q1010 NOSIG
WIPP 240200Z 17004KT 9999 FEW012 27/25 Q1012 NOSIG
TAF WIPP 232300Z 2400/2424 15008KT 9999 SCT013 
     PROB40 
     TEMPO 2408/2412 5000 RA BKN012 FEW015CB 
     TEMPO 2421/2424 3000 BR
       
TAF WITT 232300Z 2400/2424 13005KT 9999 FEW020 
     BECMG 2403/2405 33010KT 
     BECMG 2412/2414 VRB05KT
       
WAAA 240230Z VRB02KT 9999 FEW019 29/19 Q1012 NOSIG
TAF WAAA 232300Z 2400/2506 14004KT 9000 FEW020 
     BECMG 2401/2403 31008KT 
     BECMG 2411/2413 12004KT 8000 
     BECMG 2501/2503 31008KT 9000
       
WABB 240200Z 14004KT 9999 SCT018 29/24 Q1010 NOSIG
TAF AMD WABB 232325Z 2400/2506 33004KT 9999 FEW018 FEW019 
     TEMPO 2400/2406 7000 RA 
     BECMG 2402/2404 10003KT SCT018
       
WADD 240230Z 10013KT 060V120 9999 SCT016 27/21 Q1014 NOSIG
TAF WADD 232300Z 2400/2500 09010KT 9999 SCT016
       
WADL 240230Z 15012KT 9000 SCT016 27/20 Q1014 NOSIG
TAF WADL 232300Z 2400/2424 15015KT 9000 SCT016
       
WAHQ 240200Z 21006KT 7000 NIL NSC 26/17 Q1014 NOSIG
WAHS 240230Z 11007KT 5000 HZ FEW014 29/19 Q1012 NOSIG
WAJJ 240200Z 32003KT 9999 FEW011 31/22 Q1008 NOSIG
WALL 240230Z 23005KT 180V260 9999 FEW020 29/25 Q1010
TAF WALL 232300Z 2400/2506 25010KT 9999 SCT018 
     TEMPO 2400/2403 FEW018CB SCT018
       
WAMM 240230Z 06004KT 9999 FEW022 31/24 Q1009 NOSIG
TAF WAMM 232300Z 2400/2506 18008KT 9999 SCT022 
     PROB40 
     TEMPO 2405/2409 8000 -RA SCT018 
     BECMG 2409/2411 06002KT FEW022
       
WAOO 240130Z 19003KT 9999 FEW020 26/22 Q1011
TAF WAOO 232300Z 2400/2424 15006KT 9999 FEW018 
     TEMPO 2420/2424 5000 BR
       
TAF WAPI 232300Z 2400/2412 12006KT 9000 FEW020 SCT100
       
WAPP 240230Z 18004KT 120V240 9000 -RA BKN015 27/25 Q1011 NOSIG
TAF WAPP 232300Z 2400/2424 34007KT 6000 -RA BKN015 
     TEMPO 2409/2413 9999 NSW
       
WAQQ 240200Z 20005KT 9000 SCT015 31/23 Q1009
TAF WAQQ 232300Z 2400/2412 23004KT 8000 FEW015CB BKN015 
     BECMG 2400/2402 9999 SCT015
       
WARR 240230Z 14008KT 120V180 8000 FEW020 28/20 Q1013 NOSIG
TAF WARR 232300Z 2400/2500 10010KT 9999 FEW020 
     TEMPO 2421/2500 5000 HZ
       
WATT 240230Z 10014KT 9999 SCT019 BKN059 30/19 Q1014 NOSIG
TAF WATT 232300Z 2400/2424 09008KT 9999 FEW020 
     TEMPO 2403/2408 09010G20KT
       
WABB 240200Z 14004KT 9999 SCT018 29/24 Q1010 NOSIG
TAF AMD WABB 232325Z 2400/2506 33004KT 9999 FEW018 FEW019 
     TEMPO 2400/2406 7000 RA 
     BECMG 2402/2404 10003KT SCT018
       
WAAA 240230Z VRB02KT 9999 FEW019 29/19 Q1012 NOSIG
TAF WAAA 232300Z 2400/2506 14004KT 9000 FEW020 
     BECMG 2401/2403 31008KT 
     BECMG 2411/2413 12004KT 8000 
     BECMG 2501/2503 31008KT 9000
       
WAAA 240230Z VRB02KT 9999 FEW019 29/19 Q1012 NOSIG
TAF WAAA 232300Z 2400/2506 14004KT 9000 FEW020 
     BECMG 2401/2403 31008KT 
     BECMG 2411/2413 12004KT 8000 
     BECMG 2501/2503 31008KT 9000
       
WABB 240200Z 14004KT 9999 SCT018 29/24 Q1010 NOSIG
TAF AMD WABB 232325Z 2400/2506 33004KT 9999 FEW018 FEW019 
     TEMPO 2400/2406 7000 RA 
     BECMG 2402/2404 10003KT SCT018
       
WADD 240230Z 10013KT 060V120 9999 SCT016 27/21 Q1014 NOSIG
TAF WADD 232300Z 2400/2500 09010KT 9999 SCT016
       
WADL 240230Z 15012KT 9000 SCT016 27/20 Q1014 NOSIG
TAF WADL 232300Z 2400/2424 15015KT 9000 SCT016
       
WAHQ 240200Z 21006KT 7000 NIL NSC 26/17 Q1014 NOSIG
WAHS 240230Z 11007KT 5000 HZ FEW014 29/19 Q1012 NOSIG
WAJJ 240200Z 32003KT 9999 FEW011 31/22 Q1008 NOSIG
WALL 240230Z 23005KT 180V260 9999 FEW020 29/25 Q1010
TAF WALL 232300Z 2400/2506 25010KT 9999 SCT018 
     TEMPO 2400/2403 FEW018CB SCT018
       
WAMM 240230Z 06004KT 9999 FEW022 31/24 Q1009 NOSIG
TAF WAMM 232300Z 2400/2506 18008KT 9999 SCT022 
     PROB40 
     TEMPO 2405/2409 8000 -RA SCT018 
     BECMG 2409/2411 06002KT FEW022
       
WAOO 240130Z 19003KT 9999 FEW020 26/22 Q1011
TAF WAOO 232300Z 2400/2424 15006KT 9999 FEW018 
     TEMPO 2420/2424 5000 BR
       
TAF WAPI 232300Z 2400/2412 12006KT 9000 FEW020 SCT100
       
WAPP 240230Z 18004KT 120V240 9000 -RA BKN015 27/25 Q1011 NOSIG
TAF WAPP 232300Z 2400/2424 34007KT 6000 -RA BKN015 
     TEMPO 2409/2413 9999 NSW
       
WAQQ 240200Z 20005KT 9000 SCT015 31/23 Q1009
TAF WAQQ 232300Z 2400/2412 23004KT 8000 FEW015CB BKN015 
     BECMG 2400/2402 9999 SCT015
       
WARR 240230Z 14008KT 120V180 8000 FEW020 28/20 Q1013 NOSIG
TAF WARR 232300Z 2400/2500 10010KT 9999 FEW020 
     TEMPO 2421/2500 5000 HZ
       
WATT 240230Z 10014KT 9999 SCT019 BKN059 30/19 Q1014 NOSIG
TAF WATT 232300Z 2400/2424 09008KT 9999 FEW020 
     TEMPO 2403/2408 09010G20KT
       
WIBB 240230Z 16012KT 9999 SCT017 30/25 Q1009
TAF WIBB 232300Z 2400/2424 17006KT 9999 SCT015
       
WIDD 240230Z 18009KT 9999 FEW014 31/24 Q1012 NOSIG
TAF WIDD 232300Z 2400/2424 14012KT 9999 SCT014 
     BECMG 2412/2414 14005KT FEW014
       
WIEE 240230Z VRB02KT 9999 FEW020 30/24 Q1011 NOSIG
TAF WIEE 232300Z 2400/2424 24005KT 9999 FEW020 
     BECMG 2410/2412 02003KT 8000
       
WIHH 240200Z 20003KT 5000 HZ FEW020 28/24 Q1012 NOSIG
TAF WIHH 232300Z 2400/2500 06008KT 6000 FEW022 
     BECMG 2401/2403 21006KT 7000 FEW024 
     TEMPO 2409/2412 34010KT 4000 -RA FEW017CB SCT018 
     BECMG 2415/2417 00000KT 6000 FEW020
       
WIII 240230Z VRB02KT 6000 SCT020 29/24 Q1012 NOSIG
TAF WIII 232300Z 2400/2506 VRB04KT 5000 HZ SCT020 
     BECMG 2402/2404 05010KT 9000 NSW
       
WIMM 240230Z 00000KT 2000 HZ SCT018 27/25 Q1010
TAF WIMM 232300Z 2400/2500 VRB05KT 0900 FG FEW018 
     BECMG 2403/2405 07010KT 8000 NSW SCT018 
     BECMG 2411/2413 VRB05KT 3000 BR
       
WIOO 240230Z 13007KT 9999 SCT013 30/25 Q1010 NOSIG
WIPP 240200Z 17004KT 9999 FEW012 27/25 Q1012 NOSIG
TAF WIPP 232300Z 2400/2424 15008KT 9999 SCT013 
     PROB40 
     TEMPO 2408/2412 5000 RA BKN012 FEW015CB 
     TEMPO 2421/2424 3000 BR
       
TAF WITT 232300Z 2400/2424 13005KT 9999 FEW020 
     BECMG 2403/2405 33010KT 
     BECMG 2412/2414 VRB05KT
       
WAPP 240230Z 18004KT 120V240 9000 -RA BKN015 27/25 Q1011 NOSIG
TAF WAPP 232300Z 2400/2424 34007KT 6000 -RA BKN015 
     TEMPO 2409/2413 9999 NSW
       
TAF WIBD 232300Z 2400/2424 18006KT 9999 SCT016
       
WIMM 240230Z 00000KT 2000 HZ SCT018 27/25 Q1010
TAF WIMM 232300Z 2400/2500 VRB05KT 0900 FG FEW018 
     BECMG 2403/2405 07010KT 8000 NSW SCT018 
     BECMG 2411/2413 VRB05KT 3000 BR
       
WIBB 240230Z 16012KT 9999 SCT017 30/25 Q1009
TAF WIBB 232300Z 2400/2424 17006KT 9999 SCT015
       
WIDD 240230Z 18009KT 9999 FEW014 31/24 Q1012 NOSIG
TAF WIDD 232300Z 2400/2424 14012KT 9999 SCT014 
     BECMG 2412/2414 14005KT FEW014
       
WIEE 240230Z VRB02KT 9999 FEW020 30/24 Q1011 NOSIG
TAF WIEE 232300Z 2400/2424 24005KT 9999 FEW020 
     BECMG 2410/2412 02003KT 8000
       
WIHH 240200Z 20003KT 5000 HZ FEW020 28/24 Q1012 NOSIG
TAF WIHH 232300Z 2400/2500 06008KT 6000 FEW022 
     BECMG 2401/2403 21006KT 7000 FEW024 
     TEMPO 2409/2412 34010KT 4000 -RA FEW017CB SCT018 
     BECMG 2415/2417 00000KT 6000 FEW020
       
WIII 240230Z VRB02KT 6000 SCT020 29/24 Q1012 NOSIG
TAF WIII 232300Z 2400/2506 VRB04KT 5000 HZ SCT020 
     BECMG 2402/2404 05010KT 9000 NSW
       
WIMM 240230Z 00000KT 2000 HZ SCT018 27/25 Q1010
TAF WIMM 232300Z 2400/2500 VRB05KT 0900 FG FEW018 
     BECMG 2403/2405 07010KT 8000 NSW SCT018 
     BECMG 2411/2413 VRB05KT 3000 BR
       
WIOO 240230Z 13007KT 9999 SCT013 30/25 Q1010 NOSIG
WIPP 240200Z 17004KT 9999 FEW012 27/25 Q1012 NOSIG
TAF WIPP 232300Z 2400/2424 15008KT 9999 SCT013 
     PROB40 
     TEMPO 2408/2412 5000 RA BKN012 FEW015CB 
     TEMPO 2421/2424 3000 BR
       
TAF WITT 232300Z 2400/2424 13005KT 9999 FEW020 
     BECMG 2403/2405 33010KT 
     BECMG 2412/2414 VRB05KT
       
WAMM 240230Z 06004KT 9999 FEW022 31/24 Q1009 NOSIG
TAF WAMM 232300Z 2400/2506 18008KT 9999 SCT022 
     PROB40 
     TEMPO 2405/2409 8000 -RA SCT018 
     BECMG 2409/2411 06002KT FEW022
       
WAJJ 240200Z 32003KT 9999 FEW011 31/22 Q1008 NOSIG
WIII 240230Z VRB02KT 6000 SCT020 29/24 Q1012 NOSIG
TAF WIII 232300Z 2400/2506 VRB04KT 5000 HZ SCT020 
     BECMG 2402/2404 05010KT 9000 NSW
       
TAF WITT 232300Z 2400/2424 13005KT 9999 FEW020 
     BECMG 2403/2405 33010KT 
     BECMG 2412/2414 VRB05KT
       
WIPP 240200Z 17004KT 9999 FEW012 27/25 Q1012 NOSIG
TAF WIPP 232300Z 2400/2424 15008KT 9999 SCT013 
     PROB40 
     TEMPO 2408/2412 5000 RA BKN012 FEW015CB 
     TEMPO 2421/2424 3000 BR
       
WIBB 240230Z 16012KT 9999 SCT017 30/25 Q1009
TAF WIBB 232300Z 2400/2424 17006KT 9999 SCT015
       
WIOO 240230Z 13007KT 9999 SCT013 30/25 Q1010 NOSIG